This is the latest recevied weather packets stored in our database for station/object KC3JUG-3. If no packets are shown the sender has not sent any weather packets the latest 10 day(s).
| Time | Temp. | Humidity | Pressure | Rain* | Wind** | Luminosity | Snow |
|---|---|---|---|---|---|---|---|
| 1777947355 | 16.67° C | 56% | 1011.8 hPa | 0 mm | - | - | - |
| 1777945848 | 17.22° C | 55% | 1012 hPa | 0 mm | - | - | - |
| 1777945553 | 17.22° C | 54% | 1012 hPa | 0 mm | - | - | - |
| 1777944347 | 17.22° C | 53% | 1011.8 hPa | 0 mm | - | - | - |
| 1777944048 | 17.22° C | 53% | 1011.6 hPa | 0 mm | - | - | - |
| 1777943147 | 17.22° C | 53% | 1011.5 hPa | 0 mm | - | - | - |
| 1777942854 | 17.22° C | 53% | 1011.5 hPa | 0 mm | - | - | - |
| 1777939848 | 17.78° C | 52% | 1011.2 hPa | 0 mm | - | - | - |
| 1777936848 | 19.44° C | 49% | 1011.1 hPa | 0 mm | - | - | - |
| 1777936247 | 19.44° C | 47% | 1011.1 hPa | 0 mm | - | - | - |
| 1777934755 | 20° C | 46% | 1011.1 hPa | 0 mm | - | - | - |
| 1777934448 | 20° C | 46% | 1011.1 hPa | 0 mm | - | - | - |
| 1777934148 | 20° C | 45% | 1011.1 hPa | 0 mm | - | - | - |
| 1777932958 | 20.56° C | 45% | 1011.1 hPa | 0 mm | - | - | - |
| 1777932348 | 20.56° C | 44% | 1011.2 hPa | 0 mm | - | - | - |
| 1777930250 | 21.11° C | 44% | 1011.2 hPa | 0 mm | - | - | - |
| 1777929353 | 21.11° C | 43% | 1011.2 hPa | 0 mm | - | - | - |
| 1777927562 | 21.11° C | 43% | 1011.2 hPa | 0 mm | - | - | - |
| 1777926348 | 21.67° C | 43% | 1011.4 hPa | 0 mm | - | - | - |
| 1777925750 | 21.67° C | 46% | 1011.5 hPa | 0 mm | - | - | - |
| 1777924546 | 21.11° C | 44% | 1011.6 hPa | 0 mm | - | - | - |
| 1777924247 | 21.11° C | 41% | 1011.7 hPa | 0 mm | - | - | - |
| 1777920946 | 20.56° C | 44% | 1012.2 hPa | 0 mm | - | - | - |
| 1777919454 | 20.56° C | 46% | 1012.5 hPa | 0 mm | - | - | - |
| 1777919146 | 20.56° C | 44% | 1012.6 hPa | 0 mm | - | - | - |
* Rain latest hour (hover to see other rain measurements)
** Current wind speed in m/s (hover to see current wind gust speed)